Weather History for KUIL - March, 2014

Change the Weather History Date:

Saturday, March 1, 2014

  Actual Average Record
Temperature  
Mean Temperature 46 °F 43 °F  
Max Temperature 50 °F 50 °F 64 °F (1990)
Min Temperature 42 °F 36 °F 19 °F (1971)
Degree Days  
Heating Degree Days 19 22  
Month to date heating degree days 19 22  
Since 1 July heating degree days 3213 3867  
Cooling Degree Days 0 0  
Month to date cooling degree days 0 0  
Year to date cooling degree days 0 0  
Moisture  
Dew Point 29 °F    
Average Humidity 55    
Maximum Humidity 80    
Minimum Humidity 29    
Precipitation  
Precipitation 0.00 in 0.37 in 2.90 in (1994)
Month to date precipitation 0.00 0.37  
Year to date precipitation 22.57 25.33  
Sea Level Pressure  
Sea Level Pressure 29.59 in    
Wind  
Wind Speed 7 mph (ESE)    
Max Wind Speed 15 mph    
Max Gust Speed 20 mph    
Visibility 7 miles    
Events      
T = Trace of Precipitation, MM = Missing Value Source: NWS Daily Summary

Daily Weather History Graph

Daily Weather History Graph

Search for Another Location

Airport or City:

Trip Planner

Search our weather history database for the weather conditions in past years. The results will help you decide how hot, cold, wet, or windy it might be!

Date:

Astronomy

Mar. 01, 2014 Rise Set
Actual Time 6:58 AM PST 6:02 PM PST
Civil Twilight 6:27 AM PST 6:34 PM PST
Nautical Twilight 5:51 AM PST 7:09 PM PST
Astronomical Twilight 5:16 AM PST 7:46 PM PST
Moon 6:51 AM PST (3/1) 7:04 PM PST (3/1)
Length of Visible Light 12h 06m
Length of Day
11h 04m
New Moon, 0% of the Moon is Illuminated
Mar 1
New Moon
Mar 8
First Quarter
Mar 16
Full
Mar 23
Last Quarter
Mar 30
New

Hourly Weather History & Observations

Time (PST) Temp. Windchill Dew Point Humidity Pressure Visibility Wind Dir Wind Speed Gust Speed Precip Events Conditions
12:53 AM 46.0 °F 41.0 °F 19.0 °F 34% 29.52 in 8.0 mi NE 10.4 mph - N/A   Clear
1:53 AM 44.1 °F 39.5 °F 19.9 °F 38% 29.54 in 8.0 mi NE 8.1 mph - N/A   Clear
2:53 AM 43.0 °F 37.7 °F 21.9 °F 43% 29.54 in 8.0 mi NE 9.2 mph - N/A   Clear
3:53 AM 44.1 °F 39.5 °F 21.0 °F 40% 29.54 in 8.0 mi NE 8.1 mph - N/A   Overcast
4:53 AM 44.1 °F 39.0 °F 21.9 °F 42% 29.55 in 8.0 mi NE 9.2 mph - N/A   Overcast
5:53 AM 44.1 °F 38.1 °F 21.0 °F 40% 29.55 in 8.0 mi NE 11.5 mph - N/A   Overcast
6:53 AM 43.0 °F 37.2 °F 21.9 °F 43% 29.57 in 8.0 mi NE 10.4 mph - N/A   Overcast
7:53 AM 43.0 °F 38.8 °F 21.9 °F 43% 29.59 in 7.0 mi ENE 6.9 mph - N/A   Overcast
8:53 AM 46.9 °F - 24.1 °F 41% 29.60 in 7.0 mi ENE 9.2 mph - N/A   Overcast
9:53 AM 48.0 °F - 25.0 °F 41% 29.59 in 7.0 mi NE 8.1 mph - N/A   Overcast
10:53 AM 50.0 °F - 27.0 °F 41% 29.59 in 7.0 mi NE 8.1 mph - N/A   Overcast
11:53 AM 48.0 °F - 28.0 °F 46% 29.60 in 7.0 mi Variable 3.5 mph - N/A   Overcast
12:07 PM 48.0 °F - 28.0 °F 46% 29.59 in 7.0 mi NE 6.9 mph - N/A   Overcast
12:53 PM 48.0 °F - 28.0 °F 46% 29.59 in 7.0 mi ENE 6.9 mph - N/A   Overcast
1:53 PM 46.0 °F - 28.9 °F 51% 29.60 in 6.0 mi Calm Calm - N/A   Haze
2:53 PM 45.0 °F 42.6 °F 30.0 °F 56% 29.60 in 6.0 mi ENE 4.6 mph - N/A   Haze
3:53 PM 44.1 °F 40.8 °F 30.0 °F 58% 29.59 in 6.0 mi NE 5.8 mph - N/A   Haze
4:05 PM 45.0 °F 43.5 °F 28.9 °F 53% 29.58 in 6.0 mi NE 3.5 mph - N/A   Haze
4:53 PM 45.0 °F 42.6 °F 34.0 °F 65% 29.58 in 6.0 mi East 4.6 mph - N/A   Haze
5:53 PM 50.0 °F - 44.1 °F 80% 29.59 in 5.0 mi SSE 8.1 mph - N/A   Haze
6:24 PM 46.0 °F 43.1 °F 39.9 °F 79% 29.58 in 7.0 mi ESE 5.8 mph - N/A   Overcast
6:53 PM 48.9 °F - 39.0 °F 69% 29.58 in 7.0 mi Variable 5.8 mph - N/A   Overcast
7:53 PM 48.9 °F - 41.0 °F 74% 29.60 in 6.0 mi Variable 5.8 mph 16.1 mph N/A   Haze
8:23 PM 48.9 °F - 28.0 °F 44% 29.60 in 6.0 mi South 5.8 mph 16.1 mph N/A   Haze
8:53 PM 48.0 °F - 32.0 °F 54% 29.62 in 7.0 mi SSW 10.4 mph - N/A   Overcast
9:25 PM 46.9 °F - 32.0 °F 56% 29.62 in 7.0 mi SW 6.9 mph - N/A   Overcast
9:53 PM 46.9 °F - 30.9 °F 54% 29.63 in 7.0 mi South 8.1 mph - N/A   Overcast
10:01 PM 46.9 °F - 32.0 °F 56% 29.63 in 7.0 mi SSW 5.8 mph - N/A   Overcast
10:18 PM 46.9 °F - 32.0 °F 56% 29.63 in 7.0 mi SSW 8.1 mph - N/A   Overcast
10:28 PM 46.9 °F - 32.0 °F 56% 29.63 in 7.0 mi SSW 6.9 mph - N/A   Overcast
10:48 PM 46.4 °F 43.5 °F 32.0 °F 57% 29.63 in 7.0 mi SSW 5.8 mph - N/A   Overcast
10:53 PM 46.9 °F - 32.0 °F 56% 29.63 in 7.0 mi SSW 4.6 mph - N/A   Overcast
11:22 PM 46.9 °F - 32.0 °F 56% 29.64 in 7.0 mi SSW 8.1 mph - N/A   Overcast
11:30 PM 46.9 °F - 32.0 °F 56% 29.64 in 7.0 mi SSW 8.1 mph - N/A   Overcast
11:53 PM 46.9 °F - 32.0 °F 56% 29.65 in 7.0 mi SSW 6.9 mph - N/A   Overcast